This demonstration page uses our WeatherBlox Daily Observations layout. Learn more.

38.89511, -77.03637

Hourly Observations for September 5, 2018

Temp ( °F °C ) Dew Point ( °F °C ) Humidity (%) Winds ( mph kmh ) Pressure ( in mb ) Visibility ( mi km ) Precip ( " mm )
12:52 am 00:52 Partly Cloudy 81 27.2 75 23.9 82 82 SSE 3 6 30.22 1023 10 16.0934 0 0
1:52 am 01:52 Mostly Cloudy 80 26.7 73 22.8 79 79 Calm 30.21 1023 10 16.0934 0 0
2:52 am 02:52 Mostly Clear 80 26.7 73 22.8 79 79 ESE 3 6 30.21 1023 10 16.0934 0 0
3:52 am 03:52 Mostly Clear 79 26.1 75 23.9 88 88 Calm 30.22 1023 10 16.0934 0 0
4:52 am 04:52 Mostly Clear 78 25.6 73 22.8 85 85 SSW 3 6 30.21 1023 10 16.0934 0 0
5:52 am 05:52 Mostly Clear 78 25.6 73 22.8 85 85 Calm 30.22 1023 10 16.0934 0 0
6:52 am 06:52 Mostly Sunny 78 25.6 73 22.8 85 85 Calm 30.23 1024 10 16.0934 0 0
7:52 am 07:52 Mostly Sunny 80 26.7 74 23.3 82 82 S 3 6 30.24 1024 10 16.0934 0 0
8:52 am 08:52 Sunny 82 27.8 75 23.9 79 79 SSE 5 7 30.24 1024 10 16.0934 0 0
9:52 am 09:52 Mostly Sunny 85 29.4 75 23.9 72 72 SSE 3 6 30.25 1024 10 16.0934 0 0
10:52 am 10:52 Mostly Sunny 87 30.6 75 23.9 67 67 SSE 3 6 30.25 1024 10 16.0934 0 0
11:52 am 11:52 Partly Cloudy 90 32.2 73 22.8 58 58 S 7 11 30.24 1024 10 16.0934 0 0
12:52 pm 12:52 Partly Cloudy 91 32.8 72 22.2 54 54 S 9 15 30.23 1024 10 16.0934 0 0
1:52 pm 13:52 Partly Cloudy 92 33.3 72 22.2 52 52 S 7 11 30.21 1023 10 16.0934 0 0
2:52 pm 14:52 Mostly Sunny 92 33.3 75 23.9 58 58 S 10 17 30.19 1022 10 16.0934 0 0
3:52 pm 15:52 Partly Cloudy 92 33.3 73 22.8 54 54 S 8 13 30.18 1022 10 16.0934 0 0
4:52 pm 16:52 Mostly Sunny 91 32.8 75 23.9 59 59 S 8 13 30.15 1021 10 16.0934 0 0
5:52 pm 17:52 Mostly Sunny 91 32.8 75 23.9 59 59 SSE 8 13 30.15 1021 10 16.0934 0 0
6:52 pm 18:52 Mostly Sunny 89 31.7 74 23.3 61 61 S 8 13 30.15 1021 10 16.0934 0 0
7:52 pm 19:52 Mostly Clear 87 30.6 76 24.4 70 70 S 5 7 30.16 1021 10 16.0934 0 0
8:52 pm 20:52 Mostly Clear 85 29.4 78 25.6 80 80 S 5 7 30.18 1022 10 16.0934 0 0
9:52 pm 21:52 Clear 84 28.9 76 24.4 77 77 S 6 9 30.18 1022 10 16.0934 0 0
10:52 pm 22:52 Clear 83 28.3 74 23.3 74 74 S 6 9 30.19 1022 10 16.0934 0 0
11:52 pm 23:52 Clear 83 28.3 76 24.4 79 79 S 7 11 30.19 1022 10 16.0934 0 0

Powered by AerisWeather